Simultaneous Nadir Overpasses (SNOs) Predictions

Prediction of SNOs between METOP-A and TERRA Satellite Orbit:

Table of predicted SNOs for the next 14.0 days since TLE Epoch: 12/27/2014
Index Date (METOP-A) Time (METOP-A) Lat,Lon (METOP-A) SZA (METOP-A ) Date (TERRA) Time (TERRA) Lat,Lon (TERRA) SZA (TERRA ) Distance(km) Time Diff (sec)
1 12/27/2014 05:13:19 81.30, 148.66 107.20 12/27/2014 05:14:26 81.31, 148.83 107.26 3.14 67
2 12/27/2014 06:03:59 -81.31, -43.65 72.76 12/27/2014 06:03:53 -81.31, -43.67 72.77 0.34 6
3 12/30/2014 00:47:39 81.30,-144.86 107.03 12/30/2014 00:48:40 81.30,-144.94 107.04 1.31 61
4 12/30/2014 01:38:19 -81.31, 22.83 72.94 12/30/2014 01:38:06 -81.32, 22.96 72.93 2.31 13
5 01/01/2015 20:21:59 81.30, -78.46 106.78 01/01/2015 20:22:52 81.31, -78.30 106.83 2.94 53
6 01
